www.pogodaiklimat.ru

Погода и климат >> Архив погоды >> Франция >> Оранж


ПОГОДА в Оранже

  • Прогноз погоды в Оранже
  • Монитор погоды в Оранже

АРХИВ ПОГОДЫ в Оранже

Время (UTC), дата Ветер
(напр.,м/с)
 
Видим.   Явления Облачность Т
(С)
Тd
(С)
f
(%)
Тe
(С)
Тes
(С)
Комфортность P
(гПа)
Po
(гПа)
Тmin
(С)
Tmax
(С)
R
(мм)
R24
(мм)
S
(см)
19 10.06 С 6-10
{10}
50 км н/о +18.7 +12.2 66 +19 +19 1010.5 1004.1
20 10.06 С 5-8
{9}
60 км н/о +16.9 +11.0 68 +16 +16 1011.4 1004.9
21 10.06 С 5-9
{9}
60 км н/о +16.2 +7.1 55 +15 +15 1011.7 1005.2
22 10.06 С 4-6
{8}
60 км 8/8
[]
+16.1 +7.3 56 +16 +16 1011.9 1005.4
23 10.06 С 5-7
{8}
60 км 10/10
[]
+16.2 +7.4 56 +15 +15 1011.6 1005.1
00 11.06 С 4-5
{6}
60 км 10/0 2000 м
[]
+16.0 +7.7 58 +15 +15 1011.6 1005.1
01 11.06 СЗ 3-4
{6}
60 км 10/10 2000 м
[]
+14.8 +8.7 67 +14 +14 1011.5 1005.0
02 11.06 С 4-6
{6}
60 км 10/10 2000 м
[]
+14.5 +8.4 67 +13 +13 1010.8 1004.3
03 11.06 С 3
{12}
60 км 10/0 2000 м
[]
+13.9 +8.5 70 +13 +13 1010.4 1003.8
04 11.06 С 3-5
{5}
60 км 10/10
[]
+14.3 +7.6 64 +13 +13 1010.0 1003.5
05 11.06 СЗ 2-4
{5}
60 км 10/10
[]
+14.2 +8.4 68 +14 +14 1010.3 1003.8
06 11.06 С 3
{8}
55 км 10/0
[]
+14.3 +8.5 68 +14 +14 1010.5 1004.0 +13.8 +21.0
07 11.06 С 2-4
{4}
55 км 10/10
[]
+14.7 +9.5 71 +14 +14 1011.2 1004.7
08 11.06 СЗ 2 30 км слаб. дождь 10/4 1380 м
[]
+15.1 +10.5 74 +15 +18 1011.5 1005.0 0.0
09 11.06 С 2-2
{3}
40 км н/о +16.1 +10.8 71 +16 +16 1011.5 1005.0 0.0
10 11.06 СВ 1-2
{3}
40 км н/о +17.7 +10.6 63 +19 +19 1011.4 1004.9
11 11.06 З 1-2
{2}
50 км н/о +18.2 +10.6 61 +19 +19 1011.4 1004.9
12 11.06 ЮЗ 1
{4}
12 км слаб. дождь 10/10 1000 м
[]
+16.6 +12.1 75 +17 +22 1012.0 1005.5 0.4
13 11.06 ЮВ 1 15 км слаб. дождь 10/10 870 м
[]
+16.1 +13.0 82 +17 +17 1012.5 1006.0 0.8
14 11.06 ЮВ 2 40 км 9/1 1110 м
[]
+16.0 +13.5 85 +16 +24 1012.2 1005.7 0.6
15 11.06 ЮВ 1-2
{2}
40 км н/о +15.9 +12.5 80 +17 +17 1012.0 1005.5 1
16 11.06 ЮВ 1 19 км 8/3 1200 м
[]
+15.5 +12.8 84 +16 +20 1011.8 1005.3 0.2
17 11.06 ЮВ 1 10 км слаб. дождь 10/10 660 м
[]
+14.6 +13.3 92 +15 +15 1012.3 1005.8 1
18 11.06 ЮВ 2
{4}
9000 м слаб. дождь 10/10 600 м
[]
+14.3 +13.7 96 +14 +14 1012.4 1005.9 +14.3 +18.3 2
19 11.06 В 1 10 км 9/8 120 м
[]
+13.7 +13.1 96 +14 +14 1012.1 1005.5 0.2
20 11.06 ЮВ 1 19 км 10/6 360 м
[]
+13.3 +12.5 95 +14 +14 1012.8 1006.2
21 11.06 ЮВ 1
{3}
16 км слаб. дождь 10/0
[]
+13.2 +12.4 95 +14 +14 1012.7 1006.1 0.4
22 11.06 штиль 0 11 км слаб. дождь 10/8 1050 м
[]
+13.3 +12.8 97 +13 +13 1012.6 1006.0 0.0
23 11.06 ЮВ 1 4100 м дождь 10/5 150 м
[]
+13.2 +12.7 97 +14 +14 1012.9 1006.3 3
00 12.06 СВ 1-1
{1}
4700 м слаб. дождь 10/10 50 м
[]
+13.2 +12.9 98 +14 +14 1012.5 1005.9 5
01 12.06 ЮЗ 1 5000 м 10/6 300 м
[]
+13.3 +13.0 98 +14 +14 1013.1 1006.5 0.0
02 12.06 штиль 0 500 м туман н/о +12.5 +12.2 98 +12 +12 1012.9 1006.3
03 12.06 С 1-1
{1}
200 м туман ?/? +11.3 +10.8 97 +11 +11 1012.7 1006.1 0.0
04 12.06 СЗ 1-1
{2}
200 м туман ?/? +11.1 +10.8 98 +12 +12 1012.8 1006.2
05 12.06 СЗ 1-2
{2}
600 м туман н/о +12.2 +12.0 99 +12 +12 1013.1 1006.5
06 12.06 СЗ 1
{3}
7000 м н/о +13.4 +12.5 94 +13 +13 1013.6 1007.0 +11.0 +14.3 0.2
07 12.06 СЗ 2-2
{2}
15 км н/о +15.3 +13.0 86 +15 +15 1013.9 1007.4
08 12.06 СЗ 2-3
{3}
35 км н/о +17.2 +11.2 68 +18 +18 1014.1 1007.6
09 12.06 С 2-3
{3}
45 км н/о +19.0 +8.6 51 +20 +20 1014.0 1007.5
10 12.06 З 1-2
{3}
45 км н/о +19.8 +8.2 47 +22 +22 комфорт 1013.9 1007.5
11 12.06 З 1-3
{3}
60 км н/о +20.9 +8.5 45 +23 +23 комфорт 1013.5 1007.1
12 12.06 З 1-2
{3}
55 км н/о +22.0 +7.4 39 +23 +23 комфорт 1013.5 1007.1
13 12.06 ЮЗ 1-3
{3}
55 км н/о +23.2 +8.1 38 +24 +24 комфорт 1013.4 1007.0
14 12.06 ЮВ 1-2
{4}
60 км н/о +23.3 +8.2 38 +24 +24 комфорт 1013.2 1006.8
15 12.06 ЮЗ 1-3
{3}
60 км н/о +24.1 +6.8 33 +24 +24 комфорт 1013.1 1006.7
16 12.06 ЮЗ 2-3
{4}
60 км н/о +24.1 +8.1 36 +25 +25 комфорт 1012.7 1006.4
17 12.06 ЮЗ 1-2
{4}
40 км н/о +23.4 +7.5 36 +24 +24 комфорт 1012.7 1006.3
18 12.06 Ю 2-3
{3}
60 км н/о +22.1 +8.6 42 +23 +23 комфорт 1013.1 1006.7 +13.4 +24.7
19 12.06 Ю 2-4
{4}
50 км н/о +19.8 +8.8 49 +21 +21 комфорт 1013.7 1007.3
20 12.06 Ю 1-2
{3}
60 км н/о +17.0 +8.9 59 +18 +18 1014.5 1008.0
21 12.06 ЮВ 2-2
{2}
55 км н/о +14.3 +9.7 74 +14 +14 1015.4 1008.8
22 12.06 ЮВ 2-2
{2}
55 км н/о +13.2 +9.6 79 +13 +13 1015.9 1009.3
23 12.06 ЮВ 1-2
{2}
50 км н/о +12.5 +9.9 84 +12 +12 1016.0 1009.4
00 13.06 ЮВ 2-1
{3}
45 км н/о +11.8 +9.7 87 +11 +11 1016.0 1009.4
01 13.06 СВ 1-1
{1}
40 км н/о +11.1 +9.4 89 +12 +12 1015.9 1009.2
02 13.06 штиль 0
{1}
21 км н/о +10.3 +9.1 92 +10 +10 1015.7 1009.0
03 13.06 С 1-1
{1}
35 км н/о +9.5 +8.7 95 +10 +10 1015.4 1008.7
04 13.06 З 1-1
{1}
27 км н/о +9.1 +8.3 95 +9 +9 1015.4 1008.7
05 13.06 СЗ 1-1
{2}
12 км н/о +10.9 +10.0 94 +11 +11 1015.7 1009.0
06 13.06 штиль 0
{2}
20 км н/о +13.4 +10.6 83 +13 +13 1016.1 1009.5 +8.9 +22.1
07 13.06 Ю 1-2
{2}
55 км н/о +16.4 +11.1 71 +18 +18 1016.3 1009.8
08 13.06 ЮВ 1-2
{2}
45 км н/о +18.8 +10.6 59 +21 +21 комфорт 1015.9 1009.4
09 13.06 ЮЗ 1-2
{2}
19 км н/о +20.4 +11.3 56 +23 +23 комфорт 1016.0 1009.6
10 13.06 Ю 1-2
{2}
60 км н/о +23.0 +11.4 48 +25 +25 комфорт 1015.7 1009.3
11 13.06 Ю 1-3
{3}
19 км н/о +25.0 +9.3 37 +26 +26 жарко 1015.3 1009.0
12 13.06 ЮЗ 1-2
{3}
60 км н/о +25.8 +7.8 32 +26 +26 жарко 1014.8 1008.5
13 13.06 Ю 2-3
{5}
45 км н/о +26.9 +7.9 30 +27 +27 жарко 1014.5 1008.2
14 13.06 Ю 2-3
{4}
18 км н/о +28.1 +8.9 30 +28 +28 жарко 1014.1 1007.8
15 13.06 Ю 2-3
{4}
55 км н/о +27.4 +7.8 29 +27 +27 жарко 1013.5 1007.2
16 13.06 Ю 2-4
{5}
60 км н/о +28.4 +9.1 30 +28 +28 жарко 1013.1 1006.8
17 13.06 ЮЗ 2-4
{4}
45 км н/о +25.7 +11.8 42 +27 +27 жарко 1013.1 1006.8
18 13.06 ЮЗ 2
{9}
55 км н/о +22.2 +12.2 53 +25 +25 комфорт 1013.8 1007.4 +13.5 +28.9
19 13.06 ЮЗ 2-3
{5}
60 км н/о +20.7 +11.3 55 +23 +23 комфорт 1014.3 1007.9
20 13.06 ЮЗ 2-2
{3}
55 км 9/9
[]
+19.5 +11.8 61 +22 +22 комфорт 1015.2 1008.7
21 13.06 СЗ 1-1
{2}
60 км 9/0
[]
+18.2 +11.7 66 +20 +20 1015.2 1008.7
22 13.06 С 1-1
{1}
50 км 9/9
[]
+16.0 +12.4 79 +17 +17 1015.1 1008.6
23 13.06 СЗ 1 50 км 9/9
[]
+15.7 +12.3 80 +17 +17 1015.3 1008.8
00 14.06 С 1-1
{2}
50 км н/о +14.4 +11.7 84 +15 +15 1014.5 1007.9
01 14.06 СЗ 1-1
{1}
50 км 9/9
[]
+14.1 +11.6 85 +15 +15 1014.5 1007.9
02 14.06 СВ 1-1
{1}
50 км н/о +14.0 +11.7 86 +15 +15 1013.8 1007.2
03 14.06 СЗ 1-2
{2}
50 км н/о +13.7 +11.4 86 +14 +14 1012.8 1006.2
04 14.06 СЗ 1-2
{2}
50 км н/о +13.2 +10.4 83 +13 +13 1012.8 1006.2
05 14.06 З 1 40 км 10/10
[]
+13.8 +11.0 83 +14 +14 1014.6 1008.0
06 14.06 С 2
{7}
15 км дождь 9/9 1500 м
[]
+15.0 +12.1 83 +15 +15 1012.9 1006.4 +13.0 +22.2 0.4
07 14.06 С 3 45 км 9/9
[]
+15.3 +12.2 82 +15 +15 1012.2 1005.7 1
08 14.06 СЗ 3-4
{5}
55 км н/о +17.9 +12.1 69 +18 +18 1011.5 1005.0
09 14.06 З 2-3
{5}
50 км 9/0
[]
+18.7 +12.4 67 +20 +22 1011.9 1005.4 1
10 14.06 С 2 35 км 9/9
[]
+20.4 +11.3 56 +23 +25 комфорт 1012.1 1005.7
11 14.06 С 3-5
{7}
23 км н/о +21.9 +12.7 56 +24 +24 комфорт 1010.9 1004.5
12 14.06 С 4-6
{6}
22 км н/о +25.7 +13.2 46 +28 +28 жарко 1008.9 1002.6
13 14.06 С 4-6
{6}
19 км н/о +26.9 +14.0 45 +29 +29 жарко 1008.1 1001.9
14 14.06 С 5-7
{7}
50 км н/о +26.0 +14.1 48 +28 +28 жарко 1007.0 1000.7
15 14.06 СЗ 2-4
{6}
19 км н/о +25.9 +14.7 50 +28 +28 жарко 1007.3 1001.0
16 14.06 С 3-3
{4}
30 км н/о +27.2 +15.6 49 +30 +30 душно 1007.1 1000.9
17 14.06 С 1-2
{4}
40 км н/о +27.5 +15.8 49 +31 +31 душно 1007.7 1001.5
18 14.06 З 2
{5}
55 км 10/0
[]
+25.6 +16.2 56 +29 +29 душно 1008.8 1002.5 +14.5 +28.1
19 14.06 ЮЗ 3-4
{6}
13 км 10/10 2000 м
[]
+23.4 +16.9 67 +29 +29 душно 1010.6 1004.3
20 14.06 Ю 1-3
{4}
13 км 10/10 2000 м
[]
+22.3 +17.7 75 +27 +27 душно 1011.5 1005.1
21 14.06 З 1-2
{2}
11 км 10/10 1500 м
[]
+21.8 +17.8 78 +26 +26 душно 1012.3 1005.9
22 14.06 СВ 1-1
{2}
11 км 10/10 1410 м
[]
+21.3 +18.1 82 +26 +26 душно 1013.0 1006.6
23 14.06 штиль 0 11 км 10/10 600 м
[]
+21.1 +18.3 84 +25 +25 комфорт 1013.3 1006.9
00 15.06 Ю 1-1
{1}
9000 м 10/10 600 м
[]
+20.9 +18.5 86 +27 +27 душно 1013.5 1007.1 0.0
01 15.06 ЮЗ 1-2
{2}
8000 м 10/10 570 м
[]
+20.7 +19.0 90 +26 +26 душно 1013.6 1007.2
02 15.06 Ю 2 8000 м 10/10 300 м
[]
+19.8 +18.6 93 +23 +23 комфорт 1013.9 1007.5 7
03 15.06 З 1
{6}
11 км 10/10 300 м
[]
+19.3 +18.1 93 +22 +22 комфорт 1014.6 1008.2 7
04 15.06 С 1-2
{3}
17 км 9/9 450 м
[]
+18.3 +17.5 95 +20 +20 1014.9 1008.4
05 15.06 СВ 1-1
{1}
17 км 9/9 420 м
[]
+18.4 +17.6 95 +21 +21 комфорт 1015.3 1008.8
06 15.06 С 1
{3}
35 км 10/10 300 м
[]
+18.7 +17.4 92 +21 +21 комфорт 1015.6 1009.1 +18.1 +25.6
07 15.06 С 1 30 км 10/10 480 м
[]
+20.7 +18.1 85 +26 +26 душно 1015.5 1009.1
08 15.06 СЗ 2 19 км н/о +21.3 +17.5 79 +25 +25 комфорт 1016.1 1009.7
09 15.06 З 1-2
{3}
19 км н/о +23.1 +17.3 70 +28 +28 душно 1016.1 1009.7
10 15.06 ЮЗ 1-2
{2}
35 км 10/10 660 м
[]
+22.4 +17.5 74 +27 +27 душно 1015.9 1009.5
11 15.06 ЮЗ 1 19 км 9/9 750 м
[]
+24.1 +18.1 69 +28 +31 душно 1015.6 1009.3
12 15.06 ЮЗ 2
{7}
19 км 9/9 600 м
[]
+24.8 +18.7 69 +30 +35 душно 1015.6 1009.3
13 15.06 Ю 3-5
{5}
19 км н/о +25.8 +17.4 60 +30 +30 душно 1015.5 1009.2
14 15.06 ЮЗ 2 29 км н/о +25.2 +16.6 59 +29 +29 душно 1016.0 1009.7
15 15.06 З 4
{13}
35 км н/о +22.5 +13.3 56 +25 +25 комфорт 1016.4 1010.0
16 15.06 С 3-5
{8}
55 км 10/10 1140 м
[]
+19.6 +14.6 73 +22 +22 комфорт 1017.2 1010.7
17 15.06 С 3-4
{5}
60 км н/о +21.5 +14.4 64 +24 +24 комфорт 1017.0 1010.6
18 15.06 СЗ 2-3
{4}
45 км н/о +20.5 +14.4 68 +24 +24 комфорт 1016.9 1010.5 +18.7 +26.9
19 15.06 С 2-3
{4}
50 км н/о +20.5 +13.0 62 +23 +23 комфорт 1017.0 1010.6
20 15.06 С 3-4
{4}
60 км н/о +18.6 +13.2 71 +20 +20 1017.6 1011.1
21 15.06 С 4-6
{6}
60 км н/о +17.4 +13.1 76 +17 +17 1018.2 1011.7
22 15.06 С 3-5
{6}
60 км н/о +17.3 +12.8 75 +17 +17 1018.8 1012.3
23 15.06 СЗ 3-4
{5}
60 км н/о +17.1 +12.4 74 +17 +17 1019.1 1012.6
00 16.06 СЗ 3-5
{5}
60 км н/о +16.5 +12.6 78 +16 +16 1019.1 1012.6
01 16.06 СЗ 3-5
{5}
55 км н/о +16.7 +12.4 76 +17 +17 1018.8 1012.3
02 16.06 СЗ 2-4
{5}
55 км н/о +16.3 +12.5 78 +16 +16 1018.6 1012.1
03 16.06 С 4-6
{6}
55 км н/о +16.4 +11.5 73 +16 +16 1018.4 1011.9
04 16.06 С 5-8
{8}
55 км н/о +16.7 +12.2 75 +16 +16 1018.0 1011.5
05 16.06 С 4-7
{7}
11 км н/о +17.2 +12.3 73 +17 +17 1018.3 1011.8
06 16.06 С 11-16
{16}
10 км н/о +18.4 +12.2 67 +18 +18 1018.5 1012.0 +16.2 +21.3
07 16.06 С 6-9
{9}
7000 м н/о +19.4 +11.9 62 +20 +20 1018.7 1012.2
08 16.06 С 6-10
{10}
9000 м н/о +20.2 +11.9 59 +22 +22 комфорт 1018.5 1012.0
09 16.06 С 5-9
{9}
13 км н/о +21.5 +12.3 56 +24 +24 комфорт 1018.3 1011.9
10 16.06 С 5-8
{9}
14 км н/о +22.8 +12.7 53 +26 +26 жарко 1018.2 1011.8
11 16.06 С 6-9
{10}
13 км н/о +23.9 +12.5 49 +26 +26 жарко 1017.5 1011.1
12 16.06 С 6-9
{9}
11 км н/о +25.1 +13.0 47 +27 +27 жарко 1016.6 1010.3
13 16.06 С 5-7
{9}
9000 м н/о +26.0 +13.5 46 +28 +28 жарко 1016.4 1010.1
14 16.06 С 6-9
{9}
8000 м н/о +26.1 +13.2 45 +28 +28 жарко 1016.1 1009.8
15 16.06 С 6-8
{9}
7000 м н/о +26.4 +12.8 43 +28 +28 жарко 1015.7 1009.4
16 16.06 С 6-8
{10}
7000 м н/о +26.4 +13.2 44 +28 +28 жарко 1015.3 1009.0
17 16.06 С 6-9
{9}
8000 м н/о +25.7 +12.9 45 +28 +28 жарко 1015.3 1009.0
18 16.06 С 5-8
{9}
9000 м н/о +24.9 +13.1 48 +27 +27 жарко 1015.4 1009.1 +18.4 +27.0
19 16.06 СЗ 4-6
{7}
25 км н/о +23.3 +12.6 51 +26 +26 жарко 1015.4 1009.0
20 16.06 С 4-6
{7}
60 км н/о +22.2 +11.9 52 +25 +25 комфорт 1015.7 1009.3
21 16.06 С 4-6
{7}
60 км н/о +21.5 +12.1 55 +24 +24 комфорт 1015.9 1009.5
22 16.06 С 5-7
{7}
60 км н/о +21.0 +12.4 58 +23 +23 комфорт 1015.9 1009.5
23 16.06 С 4-8
{8}
55 км н/о +20.3 +12.3 60 +22 +22 комфорт 1015.8 1009.4
00 17.06 С 4-6
{7}
55 км н/о +19.8 +12.1 61 +21 +21 комфорт 1016.0 1009.5
01 17.06 С 4-6
{7}
55 км н/о +19.3 +11.8 62 +20 +20 1015.6 1009.1
02 17.06 С 4-6
{6}
55 км н/о +18.9 +11.7 63 +20 +20 1015.2 1008.7
03 17.06 С 3-5
{6}
55 км н/о +18.4 +11.7 65 +19 +19 1015.4 1008.9
04 17.06 С 4-5
{7}
55 км н/о +18.0 +11.8 67 +18 +18 1015.5 1009.0
05 17.06 С 4-5
{6}
4700 м дымка н/о +18.7 +12.0 65 +19 +19 1015.7 1009.2
06 17.06 С 3
{10}
6000 м н/о +20.1 +12.6 62 +22 +22 комфорт 1016.0 1009.6 +18.0 +24.8
07 17.06 С 3-5
{6}
14 км н/о +21.8 +13.2 58 +24 +24 комфорт 1016.4 1010.0
08 17.06 С 3-4
{5}
26 км н/о +23.5 +13.7 54 +26 +26 жарко 1016.3 1009.9
09 17.06 С 2-3
{4}
40 км н/о +25.2 +14.0 50 +28 +28 жарко 1016.2 1009.9
10 17.06 С 1-2
{3}
19 км н/о +26.7 +14.1 46 +29 +29 жарко 1016.0 1009.7
11 17.06 ЮЗ 1-3
{3}
60 км н/о +28.1 +13.6 41 +30 +30 жарко 1015.7 1009.4
12 17.06 З 2-3
{3}
60 км н/о +29.2 +14.2 40 +31 +31 жарко 1015.0 1008.8
13 17.06 СЗ 1-2
{3}
19 км н/о +30.4 +13.7 36 +32 +32 жарко 1014.7 1008.5
14 17.06 З 1-2
{3}
55 км н/о +31.3 +13.6 34 +33 +33 жарко 1014.1 1007.9
15 17.06 З 1-2
{3}
45 км н/о +32.1 +10.7 27 +32 +32 жарко 1013.8 1007.6
16 17.06 ЮЗ 2
{6}
19 км н/о +32.0 +10.7 27 +32 +32 жарко 1013.4 1007.2
17 17.06 ЮВ 2-3
{3}
55 км н/о +31.7 +8.6 24 +31 +31 жарко 1013.2 1007.0
18 17.06 Ю 2-5
{5}
40 км н/о +29.9 +13.6 37 +31 +31 жарко 1013.5 1007.3 +20.1 +32.5
19 17.06 Ю 1-3
{4}
45 км н/о +26.3 +16.8 56 +30 +30 душно 1014.1 1007.8
20 17.06 ЮЗ 2-2
{3}
12 км н/о +22.8 +15.9 65 +27 +27 душно 1015.2 1008.8

 

Местоположение метеостанции Оранж (Франция): широта 44.13 долгота 4.83 высота над уровнем моря 55 м.

В архиве по умолчанию представлена погода в Оранже за последнюю неделю. Архивные данные за месяц целиком и за предыдущие месяцы, начиная с января 2011 года, Вы можете получить, выбрав интересующий диапазон дат из раскрывающегося списка и нажав кнопку "Ввод!".


*Определитесь, кто Вы:
робот инопланетянин человек

Внимание! Время в таблицах - всемирное. Для получения местного времени необходимо прибавить поправку, которая равна 1 ч.

Смотрите также архив погоды в соседних городах и на ближайших метеорологических станциях:

Погода в Карпентрасе (Франция) (18 км)
Погода в Авиньон (Франция) (25 км)
Погода в Ним аэропорту (Франция) (45 км)
Погода в Монтелимаре (Франция) (51 км)
Погода в Ниме (Франция) (54 км)
Погода в Обене (Франция) (58 км)
Погода в Салон-де-Провансе (Франция) (63 км)
Погода в Истре (Франция) (68 км)
Погода в Мариньяне (Франция) (82 км)
Погода на Ла Куроне (Франция) (91 км)

Пояснения к столбцам:

Ветер - указаны скорость ветра в м/с - средняя за 10 мин, порывы в срок и между сроками (в фигурных скобках) и направление, откуда дует ветер: С - северный, СВ - северо-восточный, В - восточный, ЮВ - юго-восточный, Ю - южный, ЮЗ - юго-западный, З - западный, СЗ - северо-западный.
Видимость - горизонтальная дальность видимости в метрах или километрах. При видимости от 1 до 10 км при отсутствии осадков обычно наблюдается дымка, при ухудшении видимости до 1 км и менее - туман. В сухую погоду видимость может ухудшаться дымом, пылью или мглою.
Явления - указаны атмосферные явления, наблюдавшиеся в срок или в последний час перед сроком; фигурными скобками обозначены явления, наблюдавшиеся между сроками (за 1-3 часа до срока); квадратными скобками обозначены град или гололедные отложения с указанием их диаметра в мм.
Облачность - указаны через наклонную черту общая и нижняя облачность в баллах и высота нижней границы облаков в метрах; квадратными скобками обозначены формы облаков: Ci - перистые, Cs - перисто-слоистые, Cc - перисто-кучевые, Ac - высококучевые, As - высокослоистые, Sc - слоисто-кучевые, Ns - слоисто-дождевые, Cu - кучевые, Cb - кучево-дождевые. Подробнее классификацию облаков см. в Атласе облаков (PDF).
T - Температура воздуха - температура, измеренная на высоте 2 м над землей.
Td - Температура точки росы - температура, при понижении до которой содержащийся в воздухе водяной пар достигнет насыщения.
f - Относительная влажность воздуха - влажноcть воздуха, измеренная на высоте 2 м над землей.
Te - Эффективная температура - температура, которую ощущает одетый по сезону человек в тени. Характеристика душности погоды. При расчете учитывается влияние влажности воздуха и скорости ветра на теплоощущения человека.
Tes - Эффективная температура на солнце - температура, которую ощущает человек, с поправкой на солнечный нагрев. Характеристика знойности погоды. Зависит от высоты солнца над горизонтом, облачности и скорости ветра. Ночью, в пасмурную погоду, а также при ветре 12 м/с и более поправка равна нулю.
P - Атмосферное давление - приведенное к уровню моря атмосферное давление.
Po - Атмосферное давление - измеренное на уровне метеостанции атмосферное давление.
Tmin - Минимальная температура - минимум температуры воздуха на высоте 2 м над землей.
Tmax - Максимальная температура - максимум температуры воздуха на высоте 2 м над землей.
R - Количество осадков - Количество выпавших осадков за период времени, мм. При наведении курсора мыши на число - период времени, за который выпало указанное количество осадков.
R24 - Количество осадков - Количество выпавших осадков за 24 часа, мм.
S - Снежный покров - Высота снежного покрова, см. При наведении курсора мыши на число - состояние снежного покрова и степень покрытия местности в баллах.